Voltar ao catálogo

COSMOS 2251 DEB

AtivoLEO
NORAD 33760·DEBRIS·🇷🇺 Russia

Lançado Jun 16, 1993 de Plesetsk Cosmodrome

Loading…

Próximas Passagens (próximas 24 horas)

TLE

AtualizadoSource: Space-Track

Época: Sep 14, 2026, 03:45 UTC

1 33760U 93036H   26257.15649109  .00000148  00000-0  60069-4 0  9995
2 33760  74.0315 135.9298 0020393 173.9135 344.7663 14.35811747920773

Acompanhe COSMOS 2251 DEB em tempo real com AllMySat

Download on the App Store